Total_Precipitation_Accumulation
0.03 0.04 0.03 0.03 0.02 0.01 0.02 0.02 0.02 0.03 0.03 0.03 0.02 0.02 0.02 0.02 0.02 0.02 0.02 0.02 0.01 0.02 0.03 0.01 0.01 0.01 0.00 0.01 0.00 0.00 0.00 0.00 0.00 0.00 0.00 0.00 0.00 0.00 0.00 0.00 0.00 0.00 0.00 0.00 0.00 0.00 0.00 0.00 0.00 0.00 0.00 0.00 0.00 0.00 0.00 0.00 0.00 0.00 0.00 0.00 0.00 0.00 0.00 0.00 0.00 0.00 0.00 0.00 0.00 0.00 0.00 0.00 0.00 0.00 0.00 0.00 0.00 0.00 0.01 0.00 0.00 0.01 0.08 0.08 0.04 0.10 0.07 0.07
0.03 0.03 0.03 0.02 0.01 0.02 0.02 0.01 0.02 0.02 0.01 0.01 0.02 0.02 0.03 0.02 0.02 0.01 0.03 0.02 0.02 0.02 0.01 0.02 0.00 0.01 0.01 0.00 0.00 0.00 0.00 0.00 0.00 0.00 0.00 0.00 0.00 0.00 0.00 0.00 0.00 0.00 0.00 0.00 0.00 0.00 0.00 0.00 0.00 0.00 0.00 0.00 0.00 0.00 0.00 0.00 0.00 0.00 0.00 0.00 0.00 0.00 0.00 0.00 0.00 0.00 0.00 0.00 0.00 0.00 0.00 0.00 0.00 0.00 0.00 0.02 0.00 0.00 0.01 0.02 0.04 0.05 0.06 0.11 0.10 0.06 0.09 0.08
0.02 0.02 0.02 0.01 0.02 0.03 0.03 0.02 0.02 0.02 0.02 0.02 0.01 0.02 0.02 0.02 0.02 0.01 0.01 0.02 0.01 0.00 0.01 0.01 0.01 0.01 0.00 0.00 0.00 0.00 0.00 0.00 0.00 0.00 0.00 0.00 0.00 0.00 0.00 0.00 0.00 0.00 0.00 0.00 0.00 0.00 0.00 0.00 0.00 0.00 0.00 0.00 0.00 0.00 0.00 0.00 0.00 0.00 0.00 0.00 0.00 0.00 0.00 0.00 0.00 0.00 0.00 0.00 0.00 0.00 0.00 0.00 0.00 0.00 0.00 0.03 0.01 0.00 0.00 0.01 0.03 0.12 0.12 0.08 0.07 0.09 0.12 0.12
0.02 0.02 0.02 0.03 0.02 0.03 0.03 0.03 0.02 0.03 0.03 0.03 0.02 0.02 0.02 0.02 0.02 0.02 0.02 0.01 0.00 0.01 0.01 0.01 0.01 0.01 0.00 0.00 0.00 0.00 0.00 0.00 0.00 0.00 0.00 0.00 0.00 0.00 0.00 0.00 0.00 0.00 0.00 0.00 0.00 0.00 0.00 0.00 0.00 0.00 0.00 0.00 0.00 0.00 0.00 0.00 0.00 0.00 0.00 0.00 0.00 0.00 0.00 0.00 0.00 0.00 0.00 0.00 0.00 0.00 0.00 0.00 0.00 0.00 0.00 0.00 0.03 0.02 0.01 0.02 0.06 0.09 0.11 0.10 0.11 0.07 0.10 0.29
0.02 0.02 0.02 0.01 0.02 0.02 0.02 0.03 0.03 0.03 0.03 0.03 0.03 0.02 0.03 0.02 0.02 0.02 0.02 0.01 0.01 0.01 0.01 0.01 0.00 0.00 0.00 0.00 0.00 0.00 0.00 0.00 0.00 0.00 0.00 0.00 0.00 0.00 0.00 0.00 0.00 0.00 0.00 0.00 0.00 0.00 0.00 0.00 0.00 0.00 0.00 0.00 0.00 0.00 0.00 0.00 0.00 0.00 0.00 0.00 0.00 0.00 0.00 0.00 0.00 0.00 0.00 0.00 0.00 0.00 0.00 0.00 0.00 0.00 0.00 0.00 0.02 0.12 0.07 0.07 0.01 0.02 0.18 0.11 0.07 0.07 0.25 0.29
0.02 0.02 0.01 0.01 0.01 0.02 0.03 0.02 0.03 0.02 0.02 0.02 0.03 0.02 0.02 0.03 0.02 0.02 0.02 0.02 0.02 0.02 0.01 0.01 0.00 0.00 0.00 0.00 0.00 0.00 0.00 0.00 0.00 0.00 0.00 0.00 0.00 0.00 0.00 0.00 0.00 0.00 0.00 0.00 0.00 0.00 0.00 0.00 0.00 0.00 0.00 0.00 0.00 0.00 0.00 0.00 0.00 0.00 0.00 0.00 0.00 0.00 0.00 0.00 0.00 0.00 0.00 0.00 0.00 0.00 0.00 0.00 0.00 0.00 0.00 0.00 0.00 0.04 0.02 0.06 0.04 0.01 0.05 0.10 0.09 0.24 0.38 0.64
0.01 0.01 0.01 0.01 0.02 0.03 0.02 0.03 0.02 0.03 0.02 0.02 0.01 0.02 0.02 0.03 0.03 0.02 0.02 0.01 0.01 0.01 0.00 0.01 0.00 0.00 0.00 0.00 0.00 0.00 0.00 0.00 0.00 0.00 0.00 0.00 0.00 0.00 0.00 0.00 0.00 0.00 0.00 0.00 0.00 0.00 0.00 0.00 0.00 0.00 0.00 0.00 0.00 0.00 0.00 0.00 0.00 0.00 0.00 0.00 0.00 0.00 0.00 0.00 0.00 0.00 0.00 0.00 0.00 0.00 0.00 0.00 0.00 0.00 0.00 0.00 0.00 0.00 0.03 0.05 0.02 0.07 0.07 0.08 0.09 0.26 0.26 0.33
0.00 0.00 0.01 0.02 0.02 0.02 0.02 0.02 0.02 0.01 0.02 0.02 0.02 0.01 0.01 0.01 0.03 0.02 0.02 0.02 0.01 0.01 0.01 0.01 0.00 0.00 0.00 0.00 0.00 0.00 0.00 0.00 0.00 0.00 0.00 0.00 0.00 0.00 0.00 0.00 0.00 0.00 0.00 0.00 0.00 0.00 0.00 0.00 0.00 0.00 0.00 0.00 0.00 0.00 0.00 0.00 0.00 0.00 0.00 0.00 0.00 0.00 0.00 0.00 0.00 0.00 0.00 0.00 0.00 0.00 0.00 0.00 0.00 0.00 0.00 0.00 0.00 0.00 0.02 0.02 0.00 0.02 0.04 0.08 0.06 0.23 0.36 0.37
0.00 0.01 0.01 0.02 0.01 0.01 0.01 0.01 0.01 0.01 0.01 0.01 0.01 0.01 0.02 0.02 0.02 0.02 0.01 0.02 0.02 0.02 0.01 0.01 0.00 0.00 0.00 0.00 0.00 0.00 0.00 0.00 0.00 0.00 0.00 0.00 0.00 0.00 0.00 0.00 0.00 0.00 0.00 0.00 0.00 0.00 0.00 0.00 0.00 0.00 0.00 0.00 0.00 0.00 0.00 0.00 0.00 0.00 0.00 0.00 0.00 0.00 0.00 0.00 0.00 0.00 0.00 0.00 0.00 0.00 0.00 0.00 0.00 0.00 0.00 0.00 0.00 0.00 0.00 0.00 0.02 0.04 0.04 0.10 0.10 0.15 0.12 0.23
0.01 0.01 0.01 0.01 0.00 0.00 0.00 0.00 0.01 0.01 0.01 0.01 0.01 0.01 0.01 0.02 0.02 0.02 0.01 0.01 0.02 0.02 0.01 0.01 0.00 0.00 0.00 0.00 0.00 0.00 0.00 0.00 0.00 0.00 0.00 0.00 0.00 0.00 0.00 0.00 0.00 0.00 0.00 0.00 0.00 0.00 0.00 0.00 0.00 0.00 0.00 0.00 0.00 0.00 0.00 0.00 0.00 0.00 0.00 0.00 0.00 0.00 0.00 0.00 0.00 0.00 0.00 0.00 0.00 0.00 0.00 0.00 0.00 0.00 0.00 0.00 0.00 0.00 0.00 0.00 0.05 0.02 0.06 0.03 0.07 0.15 0.23 0.17
0.01 0.01 0.00 0.00 0.00 0.00 0.00 0.01 0.01 0.01 0.01 0.01 0.02 0.02 0.02 0.02 0.02 0.01 0.02 0.01 0.01 0.01 0.01 0.00 0.00 0.00 0.00 0.00 0.00 0.00 0.00 0.00 0.00 0.00 0.00 0.00 0.00 0.00 0.00 0.00 0.00 0.00 0.00 0.00 0.00 0.00 0.00 0.00 0.00 0.00 0.00 0.00 0.00 0.00 0.00 0.00 0.00 0.00 0.00 0.00 0.00 0.00 0.00 0.00 0.00 0.00 0.00 0.00 0.00 0.00 0.00 0.00 0.00 0.00 0.00 0.00 0.00 0.00 0.00 0.01 0.01 0.02 0.03 0.08 0.11 0.10 0.28 0.27
0.01 0.00 0.00 0.00 0.01 0.01 0.01 0.01 0.01 0.01 0.02 0.02 0.02 0.03 0.02 0.02 0.01 0.01 0.01 0.02 0.01 0.01 0.00 0.00 0.01 0.00 0.00 0.00 0.00 0.00 0.00 0.00 0.00 0.00 0.00 0.00 0.00 0.00 0.00 0.00 0.00 0.00 0.00 0.00 0.00 0.00 0.00 0.00 0.00 0.00 0.00 0.00 0.00 0.00 0.00 0.00 0.00 0.00 0.00 0.00 0.00 0.00 0.00 0.00 0.00 0.00 0.00 0.00 0.00 0.00 0.00 0.00 0.00 0.00 0.00 0.00 0.00 0.00 0.00 0.04 0.01 0.02 0.02 0.05 0.09 0.14 0.22 0.21
0.00 0.00 0.00 0.01 0.01 0.01 0.00 0.01 0.01 0.01 0.01 0.02 0.02 0.02 0.02 0.02 0.01 0.01 0.01 0.00 0.00 0.00 0.00 0.00 0.00 0.00 0.00 0.00 0.00 0.00 0.00 0.00 0.00 0.00 0.00 0.00 0.00 0.00 0.00 0.00 0.00 0.00 0.00 0.00 0.00 0.00 0.00 0.00 0.00 0.00 0.00 0.00 0.00 0.00 0.00 0.00 0.00 0.00 0.00 0.00 0.00 0.00 0.00 0.00 0.00 0.00 0.00 0.00 0.00 0.00 0.00 0.00 0.00 0.00 0.00 0.00 0.01 0.01 0.01 0.01 0.02 0.02 0.05 0.03 0.04 0.15 0.16 0.20
0.00 0.00 0.01 0.00 0.00 0.00 0.00 0.01 0.01 0.01 0.01 0.01 0.02 0.01 0.01 0.01 0.02 0.01 0.01 0.01 0.01 0.02 0.01 0.02 0.00 0.00 0.00 0.00 0.00 0.00 0.00 0.00 0.00 0.00 0.00 0.00 0.00 0.00 0.00 0.00 0.00 0.00 0.00 0.00 0.00 0.00 0.00 0.00 0.00 0.00 0.00 0.00 0.00 0.00 0.00 0.00 0.00 0.00 0.00 0.00 0.00 0.00 0.00 0.00 0.00 0.00 0.00 0.00 0.00 0.00 0.00 0.00 0.00 0.00 0.00 0.01 0.00 0.00 0.00 0.01 0.01 0.04 0.06 0.07 0.07 0.20 0.15 0.10
0.00 0.00 0.00 0.00 0.00 0.01 0.01 0.01 0.01 0.00 0.01 0.00 0.00 0.00 0.00 0.01 0.01 0.01 0.01 0.01 0.02 0.00 0.00 0.01 0.00 0.00 0.00 0.00 0.00 0.00 0.00 0.00 0.00 0.00 0.00 0.00 0.00 0.00 0.00 0.00 0.00 0.00 0.00 0.00 0.00 0.00 0.00 0.00 0.00 0.00 0.00 0.00 0.00 0.00 0.00 0.00 0.00 0.00 0.00 0.00 0.00 0.00 0.00 0.00 0.00 0.00 0.00 0.00 0.00 0.00 0.00 0.00 0.00 0.00 0.00 0.00 0.01 0.00 0.00 0.01 0.02 0.04 0.10 0.09 0.19 0.15 0.10 0.13
0.00 0.00 0.00 0.00 0.01 0.01 0.01 0.01 0.01 0.01 0.01 0.01 0.01 0.01 0.01 0.01 0.01 0.02 0.01 0.01 0.01 0.00 0.01 0.00 0.00 0.00 0.00 0.00 0.00 0.00 0.00 0.00 0.00 0.00 0.00 0.00 0.00 0.00 0.00 0.00 0.00 0.00 0.00 0.00 0.00 0.00 0.00 0.00 0.00 0.00 0.00 0.00 0.00 0.00 0.00 0.00 0.00 0.00 0.00 0.00 0.00 0.00 0.00 0.00 0.00 0.00 0.00 0.00 0.00 0.00 0.00 0.00 0.00 0.00 0.00 0.01 0.00 0.00 0.00 0.01 0.01 0.02 0.05 0.31 0.17 0.09 0.09 0.07
0.00 0.00 0.01 0.01 0.00 0.00 0.00 0.01 0.01 0.01 0.01 0.01 0.01 0.01 0.01 0.00 0.00 0.01 0.01 0.02 0.02 0.00 0.00 0.00 0.00 0.00 0.00 0.00 0.00 0.00 0.00 0.00 0.00 0.00 0.00 0.00 0.00 0.00 0.00 0.00 0.00 0.00 0.00 0.00 0.00 0.00 0.00 0.00 0.00 0.00 0.00 0.00 0.00 0.00 0.00 0.00 0.00 0.00 0.00 0.00 0.00 0.00 0.00 0.00 0.00 0.00 0.00 0.00 0.00 0.00 0.00 0.00 0.00 0.00 0.00 0.01 0.01 0.01 0.00 0.01 0.01 0.01 0.03 0.12 0.14 0.13 0.14 0.09
0.00 0.00 0.01 0.00 0.00 0.00 0.01 0.01 0.01 0.01 0.01 0.01 0.00 0.00 0.01 0.00 0.00 0.01 0.00 0.00 0.00 0.00 0.00 0.00 0.00 0.00 0.00 0.00 0.00 0.00 0.00 0.00 0.00 0.00 0.00 0.00 0.00 0.00 0.00 0.00 0.00 0.00 0.00 0.00 0.00 0.00 0.00 0.00 0.00 0.00 0.00 0.00 0.00 0.00 0.00 0.00 0.00 0.00 0.00 0.00 0.00 0.00 0.00 0.00 0.00 0.00 0.00 0.00 0.00 0.00 0.00 0.00 0.00 0.00 0.00 0.00 0.01 0.01 0.01 0.01 0.01 0.01 0.03 0.07 0.04 0.10 0.12 0.09
0.00 0.00 0.00 0.00 0.00 0.01 0.01 0.01 0.00 0.01 0.01 0.00 0.00 0.01 0.00 0.00 0.01 0.01 0.00 0.00 0.00 0.00 0.00 0.00 0.00 0.00 0.02 0.00 0.00 0.00 0.00 0.00 0.00 0.00 0.00 0.00 0.00 0.00 0.00 0.00 0.00 0.00 0.00 0.00 0.00 0.00 0.00 0.00 0.00 0.00 0.00 0.00 0.00 0.00 0.00 0.00 0.00 0.00 0.00 0.00 0.00 0.00 0.00 0.00 0.00 0.00 0.00 0.00 0.00 0.00 0.00 0.00 0.00 0.00 0.00 0.01 0.01 0.01 0.00 0.00 0.01 0.01 0.03 0.04 0.03 0.10 0.13 0.12
0.00 0.00 0.00 0.00 0.00 0.00 0.01 0.01 0.01 0.00 0.00 0.00 0.00 0.00 0.00 0.00 0.00 0.00 0.00 0.00 0.00 0.00 0.00 0.00 0.00 0.00 0.00 0.00 0.00 0.00 0.00 0.00 0.00 0.00 0.00 0.00 0.00 0.00 0.00 0.00 0.00 0.00 0.00 0.00 0.00 0.00 0.00 0.00 0.00 0.00 0.00 0.00 0.00 0.00 0.00 0.00 0.00 0.00 0.00 0.00 0.00 0.00 0.00 0.00 0.00 0.00 0.00 0.00 0.00 0.00 0.00 0.00 0.00 0.00 0.00 0.00 0.01 0.01 0.00 0.01 0.01 0.02 0.02 0.04 0.02 0.05 0.05 0.09
0.00 0.00 0.00 0.00 0.00 0.00 0.00 0.01 0.00 0.00 0.01 0.00 0.00 0.00 0.00 0.00 0.00 0.01 0.00 0.00 0.00 0.00 0.00 0.00 0.00 0.00 0.00 0.00 0.00 0.00 0.00 0.00 0.00 0.00 0.00 0.00 0.00 0.00 0.00 0.00 0.00 0.00 0.00 0.00 0.00 0.00 0.00 0.00 0.00 0.00 0.00 0.00 0.00 0.00 0.00 0.00 0.00 0.00 0.00 0.00 0.00 0.00 0.00 0.00 0.00 0.00 0.00 0.00 0.00 0.00 0.00 0.00 0.00 0.00 0.00 0.00 0.00 0.01 0.00 0.01 0.01 0.01 0.01 0.02 0.01 0.07 0.04 0.10
0.00 0.00 0.00 0.00 0.00 0.00 0.01 0.01 0.00 0.00 0.01 0.01 0.00 0.00 0.00 0.00 0.00 0.00 0.00 0.00 0.00 0.00 0.00 0.00 0.00 0.00 0.00 0.00 0.00 0.00 0.00 0.00 0.00 0.00 0.00 0.00 0.00 0.00 0.00 0.00 0.00 0.00 0.00 0.00 0.00 0.00 0.00 0.00 0.00 0.00 0.00 0.00 0.00 0.00 0.00 0.00 0.00 0.00 0.00 0.00 0.00 0.00 0.00 0.00 0.00 0.00 0.00 0.00 0.00 0.00 0.00 0.00 0.00 0.00 0.00 0.00 0.00 0.00 0.01 0.00 0.00 0.00 0.01 0.02 0.04 0.14 0.29 0.10
0.00 0.00 0.00 0.00 0.00 0.01 0.00 0.00 0.00 0.00 0.00 0.00 0.00 0.00 0.00 0.00 0.00 0.00 0.00 0.00 0.00 0.00 0.00 0.00 0.00 0.00 0.00 0.00 0.00 0.00 0.00 0.00 0.00 0.00 0.00 0.00 0.00 0.00 0.00 0.00 0.00 0.00 0.00 0.00 0.00 0.00 0.00 0.00 0.00 0.00 0.00 0.00 0.00 0.00 0.00 0.00 0.00 0.00 0.00 0.00 0.00 0.00 0.00 0.02 0.00 0.00 0.00 0.00 0.00 0.00 0.00 0.00 0.00 0.00 0.00 0.01 0.01 0.00 0.00 0.01 0.00 0.00 0.01 0.01 0.05 0.13 0.05 0.03
0.00 0.00 0.00 0.00 0.01 0.00 0.00 0.00 0.00 0.00 0.00 0.00 0.00 0.00 0.00 0.00 0.00 0.00 0.00 0.00 0.00 0.00 0.00 0.00 0.00 0.00 0.00 0.00 0.00 0.00 0.00 0.00 0.00 0.00 0.00 0.00 0.00 0.00 0.00 0.00 0.00 0.00 0.00 0.00 0.00 0.00 0.00 0.00 0.00 0.00 0.00 0.00 0.00 0.00 0.00 0.00 0.00 0.00 0.00 0.00 0.00 0.00 0.00 0.00 0.02 0.00 0.00 0.00 0.00 0.00 0.00 0.00 0.00 0.00 0.00 0.01 0.00 0.00 0.00 0.01 0.01 0.00 0.00 0.01 0.08 0.15 0.04 0.02
0.00 0.00 0.00 0.00 0.00 0.00 0.00 0.00 0.00 0.00 0.00 0.00 0.00 0.00 0.00 0.00 0.00 0.00 0.00 0.00 0.00 0.00 0.00 0.00 0.00 0.00 0.00 0.00 0.00 0.00 0.00 0.00 0.00 0.00 0.00 0.00 0.00 0.00 0.00 0.00 0.00 0.00 0.00 0.00 0.00 0.00 0.00 0.00 0.00 0.00 0.00 0.00 0.00 0.00 0.00 0.00 0.00 0.00 0.00 0.00 0.00 0.00 0.00 0.00 0.00 0.00 0.00 0.01 0.00 0.00 0.00 0.01 0.00 0.00 0.00 0.00 0.00 0.00 0.00 0.00 0.00 0.00 0.00 0.01 0.04 0.02 0.04 0.03
0.00 0.00 0.00 0.00 0.00 0.00 0.00 0.00 0.00 0.00 0.00 0.00 0.00 0.00 0.00 0.00 0.00 0.00 0.00 0.01 0.01 0.02 0.00 0.00 0.00 0.00 0.00 0.00 0.00 0.00 0.00 0.00 0.00 0.00 0.00 0.00 0.00 0.00 0.00 0.00 0.00 0.00 0.00 0.00 0.00 0.00 0.01 0.00 0.00 0.00 0.00 0.00 0.00 0.00 0.00 0.00 0.00 0.00 0.01 0.00 0.00 0.00 0.00 0.00 0.00 0.00 0.01 0.01 0.04 0.00 0.01 0.02 0.00 0.00 0.00 0.00 0.00 0.00 0.00 0.00 0.00 0.00 0.00 0.00 0.03 0.12 0.06 0.04
0.00 0.00 0.00 0.00 0.00 0.00 0.00 0.00 0.00 0.00 0.00 0.00 0.00 0.00 0.00 0.00 0.00 0.00 0.01 0.04 0.07 0.02 0.00 0.00 0.00 0.00 0.00 0.00 0.00 0.00 0.00 0.01 0.00 0.00 0.00 0.00 0.00 0.00 0.00 0.00 0.00 0.00 0.00 0.00 0.00 0.00 0.00 0.00 0.00 0.00 0.00 0.00 0.00 0.00 0.00 0.00 0.00 0.01 0.01 0.00 0.00 0.00 0.00 0.00 0.00 0.00 0.02 0.00 0.00 0.00 0.00 0.02 0.01 0.01 0.00 0.00 0.00 0.00 0.00 0.00 0.00 0.00 0.01 0.03 0.09 0.56 0.12 0.03
0.00 0.00 0.00 0.00 0.00 0.01 0.00 0.00 0.00 0.00 0.00 0.00 0.00 0.00 0.00 0.00 0.00 0.00 0.01 0.04 0.07 0.00 0.02 0.00 0.00 0.00 0.00 0.00 0.00 0.00 0.00 0.00 0.00 0.00 0.00 0.00 0.00 0.00 0.00 0.00 0.00 0.00 0.00 0.00 0.01 0.00 0.00 0.00 0.00 0.00 0.00 0.00 0.00 0.00 0.00 0.00 0.00 0.00 0.00 0.00 0.00 0.00 0.00 0.00 0.01 0.01 0.02 0.01 0.03 0.00 0.00 0.00 0.01 0.02 0.01 0.00 0.01 0.00 0.01 0.01 0.01 0.00 0.01 0.01 0.15 0.06 0.03 0.03
0.00 0.00 0.00 0.00 0.00 0.00 0.00 0.00 0.00 0.00 0.00 0.00 0.00 0.00 0.00 0.00 0.00 0.00 0.12 0.07 0.10 0.01 0.00 0.02 0.00 0.00 0.00 0.00 0.00 0.00 0.00 0.00 0.00 0.00 0.00 0.00 0.00 0.00 0.00 0.00 0.00 0.00 0.00 0.00 0.01 0.01 0.00 0.00 0.00 0.00 0.00 0.00 0.00 0.00 0.00 0.00 0.00 0.00 0.00 0.00 0.00 0.00 0.00 0.00 0.02 0.00 0.08 0.00 0.02 0.04 0.06 0.01 0.04 0.01 0.00 0.00 0.00 0.01 0.03 0.04 0.05 0.04 0.04 0.10 0.08 0.07 0.03 0.04
0.00 0.00 0.00 0.00 0.00 0.00 0.00 0.01 0.00 0.00 0.00 0.00 0.00 0.00 0.00 0.00 0.00 0.06 0.03 0.00 0.00 0.07 0.00 0.00 0.03 0.01 0.00 0.00 0.00 0.00 0.00 0.00 0.00 0.00 0.00 0.00 0.00 0.00 0.00 0.00 0.00 0.00 0.00 0.00 0.00 0.00 0.01 0.00 0.00 0.00 0.00 0.00 0.00 0.00 0.00 0.00 0.00 0.00 0.00 0.00 0.00 0.00 0.00 0.01 0.01 0.01 0.05 0.01 0.01 0.00 0.03 0.00 0.04 0.02 0.02 0.01 0.02 0.01 0.01 0.00 0.03 0.05 0.06 0.05 0.22 0.07 0.02 0.05
0.00 0.00 0.00 0.01 0.01 0.00 0.00 0.00 0.00 0.00 0.00 0.00 0.00 0.00 0.00 0.00 0.08 0.05 0.00 0.02 0.00 0.01 0.00 0.00 0.00 0.00 0.00 0.00 0.00 0.00 0.00 0.00 0.00 0.00 0.00 0.00 0.00 0.00 0.00 0.00 0.00 0.00 0.00 0.00 0.00 0.00 0.00 0.00 0.00 0.00 0.00 0.00 0.00 0.00 0.00 0.00 0.00 0.00 0.00 0.01 0.00 0.03 0.02 0.01 0.02 0.01 0.07 0.00 0.01 0.02 0.01 0.01 0.06 0.07 0.01 0.01 0.00 0.00 0.00 0.00 0.02 0.05 0.03 0.03 0.04 0.07 0.04 0.05
0.00 0.00 0.00 0.01 0.00 0.01 0.00 0.00 0.00 0.00 0.00 0.00 0.00 0.00 0.00 0.05 0.01 0.02 0.01 0.00 0.08 0.09 0.01 0.02 0.00 0.00 0.00 0.00 0.00 0.00 0.00 0.00 0.00 0.00 0.00 0.00 0.00 0.00 0.00 0.00 0.00 0.00 0.01 0.00 0.03 0.00 0.00 0.00 0.00 0.00 0.00 0.00 0.00 0.00 0.00 0.00 0.00 0.00 0.00 0.01 0.17 0.12 0.01 0.06 0.02 0.02 0.00 0.01 0.03 0.00 0.00 0.02 0.01 0.05 0.03 0.01 0.00 0.00 0.00 0.01 0.02 0.01 0.02 0.00 0.08 0.05 0.07 0.05
0.00 0.00 0.00 0.00 0.00 0.01 0.00 0.00 0.00 0.00 0.00 0.00 0.00 0.00 0.12 0.00 0.00 0.02 0.01 0.00 0.17 0.00 0.01 0.00 0.01 0.00 0.02 0.00 0.00 0.00 0.00 0.02 0.02 0.00 0.00 0.00 0.00 0.00 0.00 0.00 0.00 0.00 0.03 0.01 0.00 0.00 0.00 0.00 0.00 0.00 0.00 0.00 0.00 0.00 0.01 0.01 0.00 0.00 0.01 0.09 0.05 0.09 0.04 0.01 0.04 0.01 0.04 0.01 0.01 0.01 0.02 0.03 0.08 0.02 0.01 0.04 0.01 0.00 0.01 0.02 0.01 0.01 0.02 0.02 0.00 0.02 0.08 0.06
0.00 0.00 0.00 0.00 0.00 0.00 0.00 0.00 0.00 0.00 0.00 0.00 0.00 0.00 0.00 0.00 0.00 0.00 0.01 0.00 0.01 0.00 0.00 0.00 0.00 0.00 0.00 0.03 0.11 0.00 0.01 0.00 0.00 0.00 0.00 0.02 0.00 0.01 0.00 0.00 0.00 0.00 0.00 0.00 0.00 0.00 0.00 0.01 0.00 0.00 0.01 0.00 0.00 0.00 0.00 0.03 0.00 0.00 0.00 0.01 0.07 0.06 0.04 0.01 0.03 0.04 0.00 0.07 0.02 0.00 0.00 0.02 0.02 0.46 0.00 0.01 0.01 0.01 0.01 0.02 0.00 0.00 0.00 0.00 0.02 0.03 0.07 0.31
0.00 0.00 0.00 0.00 0.00 0.00 0.00 0.00 0.00 0.00 0.00 0.00 0.00 0.00 0.00 0.00 0.00 0.01 0.00 0.00 0.00 0.00 0.00 0.00 0.00 0.00 0.00 0.00 0.01 0.01 0.00 0.08 0.00 0.01 0.00 0.00 0.03 0.00 0.01 0.00 0.00 0.00 0.00 0.00 0.01 0.00 0.00 0.01 0.01 0.00 0.00 0.00 0.00 0.00 0.00 0.00 0.02 0.00 0.01 0.01 0.03 0.04 0.01 0.04 0.20 0.02 0.00 0.03 0.01 0.04 0.00 0.06 0.18 0.04 0.01 0.02 0.00 0.00 0.00 0.01 0.01 0.02 0.02 0.02 0.03 0.08 0.05 0.19
0.00 0.00 0.00 0.00 0.00 0.00 0.00 0.00 0.00 0.00 0.00 0.00 0.00 0.00 0.00 0.00 0.00 0.00 0.00 0.00 0.00 0.00 0.00 0.00 0.00 0.01 0.00 0.01 0.00 0.02 0.03 0.03 0.13 0.02 0.06 0.00 0.00 0.03 0.00 0.00 0.00 0.00 0.00 0.00 0.01 0.03 0.00 0.04 0.00 0.00 0.00 0.00 0.00 0.00 0.00 0.00 0.18 0.07 0.00 0.05 0.01 0.01 0.00 0.01 0.00 0.00 0.00 0.00 0.01 0.01 0.01 0.01 0.01 0.01 0.01 0.02 0.04 0.04 0.00 0.01 0.01 0.02 0.03 0.05 0.05 0.07 0.08 0.12
0.00 0.00 0.00 0.00 0.00 0.00 0.00 0.00 0.00 0.00 0.00 0.00 0.00 0.00 0.00 0.00 0.00 0.00 0.00 0.00 0.00 0.00 0.00 0.03 0.01 0.00 0.02 0.02 0.06 0.00 0.08 0.00 0.07 0.02 0.17 0.01 0.04 0.00 0.00 0.00 0.00 0.00 0.00 0.00 0.01 0.00 0.07 0.09 0.01 0.01 0.00 0.00 0.00 0.00 0.00 0.00 0.00 0.00 0.02 0.03 0.00 0.00 0.03 0.01 0.07 0.07 0.00 0.00 0.02 0.01 0.01 0.10 0.04 0.16 0.01 0.08 0.05 0.04 0.08 0.03 0.02 0.05 0.11 0.18 0.34 0.64 0.83 0.64
0.00 0.00 0.00 0.00 0.00 0.00 0.00 0.00 0.00 0.00 0.00 0.00 0.00 0.00 0.00 0.00 0.00 0.00 0.00 0.00 0.00 0.00 0.01 0.01 0.14 0.00 0.01 0.02 0.06 0.02 0.02 0.01 0.22 0.02 0.12 0.05 0.25 0.00 0.02 0.00 0.00 0.00 0.00 0.00 0.00 0.01 0.00 0.07 0.02 0.00 0.00 0.00 0.00 0.00 0.00 0.00 0.00 0.00 0.06 0.01 0.01 0.07 0.03 0.01 0.00 0.01 0.03 0.02 0.03 0.01 0.08 0.05 0.02 0.15 0.03 0.07 0.05 0.19 0.30 0.21 0.19 0.18 0.32 0.62 0.44 0.62 0.98 1.37
0.00 0.00 0.02 0.00 0.00 0.00 0.00 0.00 0.00 0.01 0.01 0.00 0.00 0.00 0.00 0.00 0.01 0.00 0.00 0.00 0.00 0.00 0.00 0.00 0.04 0.00 0.00 0.02 0.05 0.04 0.04 0.10 0.07 0.14 0.06 0.26 0.15 0.08 0.11 0.01 0.03 0.00 0.00 0.00 0.00 0.00 0.00 0.01 0.03 0.00 0.00 0.01 0.00 0.00 0.01 0.01 0.00 0.00 0.00 0.00 0.00 0.00 0.04 0.04 0.01 0.03 0.01 0.11 0.01 0.02 0.02 0.08 0.06 0.20 0.05 0.06 0.09 0.06 0.09 0.14 0.26 0.49 0.48 0.73 0.74 0.86 0.83 0.91
0.00 0.02 0.07 0.00 0.00 0.00 0.00 0.00 0.00 0.01 0.01 0.00 0.02 0.00 0.00 0.00 0.00 0.00 0.00 0.00 0.01 0.00 0.00 0.00 0.00 0.03 0.00 0.00 0.00 0.10 0.06 0.09 0.04 0.20 0.04 0.35 0.06 0.07 0.07 0.00 0.07 0.00 0.00 0.00 0.00 0.00 0.04 0.00 0.03 0.07 0.00 0.00 0.03 0.00 0.01 0.00 0.02 0.00 0.00 0.00 0.00 0.01 0.04 0.00 0.06 0.01 0.03 0.05 0.08 0.08 0.05 0.16 0.06 0.01 0.05 0.07 0.04 0.08 0.08 0.07 0.11 0.26 0.64 0.32 0.55 0.88 1.11 1.04
0.01 0.00 0.04 0.00 0.00 0.00 0.00 0.01 0.01 0.01 0.00 0.00 0.00 0.00 0.00 0.01 0.00 0.00 0.00 0.00 0.00 0.00 0.00 0.00 0.00 0.00 0.01 0.01 0.01 0.00 0.04 0.02 0.07 0.11 0.04 0.19 0.09 0.23 0.00 0.01 0.01 0.19 0.00 0.01 0.00 0.00 0.00 0.00 0.00 0.02 0.01 0.01 0.01 0.00 0.00 0.00 0.00 0.00 0.00 0.03 0.01 0.05 0.10 0.05 0.04 0.00 0.07 0.01 0.03 0.04 0.10 0.12 0.30 0.00 0.01 0.11 0.08 0.11 0.11 0.10 0.10 0.42 0.19 0.36 0.35 0.56 0.37 0.46
0.01 0.05 0.06 0.00 0.00 0.00 0.00 0.09 0.03 0.02 0.03 0.03 0.01 0.00 0.01 0.00 0.00 0.00 0.00 0.00 0.00 0.01 0.00 0.00 0.00 0.00 0.00 0.00 0.00 0.00 0.00 0.00 0.12 0.05 0.16 0.21 0.09 0.04 0.04 0.00 0.01 0.00 0.01 0.05 0.03 0.09 0.01 0.01 0.03 0.00 0.05 0.16 0.01 0.02 0.00 0.00 0.00 0.00 0.00 0.00 0.01 0.02 0.01 0.06 0.04 0.13 0.04 0.06 0.03 0.11 0.06 0.15 0.02 0.02 0.04 0.01 0.18 0.20 0.35 0.30 0.44 0.61 0.59 0.82 1.07 1.10 0.58 0.40
0.04 0.04 0.00 0.00 0.01 0.00 0.01 0.07 0.02 0.05 0.09 0.03 0.02 0.00 0.00 0.01 0.01 0.01 0.01 0.02 0.01 0.00 0.00 0.00 0.00 0.00 0.00 0.00 0.01 0.00 0.00 0.00 0.04 0.16 0.05 0.09 0.14 0.09 0.03 0.00 0.00 0.02 0.00 0.02 0.01 0.03 0.00 0.00 0.00 0.03 0.04 0.03 0.00 0.00 0.00 0.00 0.00 0.00 0.00 0.00 0.00 0.02 0.01 0.02 0.02 0.08 0.03 0.05 0.04 0.05 0.02 0.14 0.05 0.11 0.06 0.25 0.64 0.43 0.19 0.46 0.69 0.49 0.62 0.73 0.81 0.49 0.81 0.30
0.01 0.03 0.03 0.00 0.00 0.03 0.05 0.17 0.08 0.04 0.04 0.02 0.01 0.02 0.01 0.01 0.00 0.01 0.00 0.00 0.00 0.01 0.00 0.00 0.00 0.00 0.00 0.00 0.00 0.00 0.01 0.00 0.00 0.01 0.11 0.02 0.08 0.03 0.07 0.05 0.05 0.18 0.02 0.06 0.04 0.03 0.11 0.02 0.02 0.06 0.04 0.07 0.10 0.02 0.02 0.00 0.00 0.00 0.00 0.00 0.00 0.00 0.00 0.02 0.01 0.01 0.02 0.00 0.04 0.05 0.04 0.09 0.08 0.01 0.03 0.07 0.07 0.24 1.46 1.12 1.27 0.63 0.27 0.83 0.81 1.04 1.02 0.60
0.00 0.01 0.04 0.13 0.04 0.23 0.32 0.15 0.14 0.06 0.15 0.07 0.16 0.08 0.11 0.02 0.00 0.01 0.03 0.04 0.01 0.01 0.00 0.01 0.00 0.03 0.00 0.00 0.00 0.00 0.00 0.00 0.03 0.00 0.01 0.05 0.13 0.01 0.03 0.01 0.07 0.14 0.03 0.01 0.00 0.01 0.09 0.07 0.02 0.03 0.15 0.13 0.14 0.12 0.14 0.08 0.03 0.01 0.00 0.00 0.00 0.00 0.02 0.02 0.00 0.01 0.02 0.01 0.02 0.02 0.06 0.04 0.07 0.03 0.08 0.17 0.26 0.36 0.42 0.46 0.48 0.72 0.95 0.27 0.43 0.40 0.31 0.65
0.01 0.00 0.01 0.57 0.60 0.57 0.10 0.29 0.10 0.12 0.10 0.13 0.02 0.03 0.03 0.14 0.05 0.00 0.00 0.02 0.00 0.01 0.00 0.00 0.00 0.00 0.00 0.00 0.00 0.00 0.00 0.00 0.00 0.02 0.01 0.11 0.02 0.00 0.01 0.00 0.00 0.03 0.02 0.00 0.01 0.00 0.24 0.05 0.17 0.04 0.05 0.19 0.06 0.06 0.06 0.00 0.02 0.04 0.01 0.00 0.02 0.00 0.00 0.01 0.03 0.00 0.02 0.00 0.03 0.07 0.03 0.09 0.08 0.06 0.08 0.03 0.24 0.29 0.71 0.32 0.43 0.48 0.38 0.74 0.57 0.76 0.41 0.59
0.00 0.00 0.00 0.04 0.11 0.38 0.54 0.17 0.07 0.11 0.08 0.05 0.04 0.03 0.12 0.02 0.09 0.02 0.00 0.09 0.00 0.01 0.00 0.00 0.00 0.00 0.01 0.00 0.00 0.00 0.00 0.00 0.00 0.00 0.00 0.04 0.04 0.04 0.00 0.00 0.00 0.00 0.01 0.03 0.06 0.06 0.13 0.07 0.04 0.07 0.06 0.05 0.03 0.05 0.07 0.01 0.01 0.02 0.04 0.04 0.01 0.00 0.01 0.08 0.00 0.01 0.05 0.05 0.04 0.26 0.06 0.02 0.04 0.05 0.03 0.07 0.07 0.08 0.28 0.19 0.11 0.14 0.41 0.37 0.50 0.56 0.50 0.15
0.00 0.00 0.01 0.01 0.23 0.36 0.35 0.45 0.23 0.32 0.21 0.05 0.13 0.04 0.07 0.09 0.16 0.15 0.06 0.01 0.00 0.01 0.02 0.00 0.00 0.01 0.00 0.00 0.01 0.00 0.00 0.00 0.00 0.02 0.03 0.02 0.04 0.08 0.03 0.01 0.01 0.00 0.00 0.01 0.01 0.08 0.12 0.16 0.11 0.07 0.06 0.09 0.07 0.04 0.03 0.05 0.01 0.01 0.02 0.06 0.08 0.03 0.01 0.02 0.00 0.00 0.08 0.02 0.01 0.10 0.09 0.01 0.03 0.04 0.02 0.04 0.02 0.09 0.18 0.22 0.18 0.21 0.13 0.06 0.09 0.14 0.25 0.14
0.00 0.00 0.02 0.02 0.14 0.28 0.15 0.40 0.36 0.36 0.36 0.09 0.13 0.12 0.12 0.08 0.13 0.05 0.04 0.18 0.01 0.10 0.01 0.01 0.00 0.01 0.00 0.01 0.01 0.02 0.03 0.03 0.00 0.02 0.08 0.18 0.15 0.22 0.08 0.12 0.02 0.03 0.00 0.02 0.01 0.01 0.04 0.13 0.16 0.12 0.14 0.11 0.06 0.03 0.02 0.03 0.03 0.02 0.04 0.02 0.04 0.04 0.07 0.06 0.02 0.02 0.03 0.05 0.04 0.09 0.02 0.02 0.06 0.09 0.02 0.03 0.02 0.12 0.22 0.19 0.19 0.09 0.06 0.23 0.06 0.08 0.05 0.20
0.00 0.01 0.03 0.03 0.03 0.03 0.09 0.16 0.37 0.51 0.39 0.14 0.04 0.11 0.15 0.07 0.19 0.04 0.04 0.08 0.12 0.04 0.00 0.06 0.13 0.09 0.02 0.01 0.01 0.07 0.06 0.10 0.05 0.02 0.07 0.00 0.06 0.29 0.51 0.24 0.23 0.05 0.01 0.04 0.02 0.17 0.11 0.11 0.04 0.31 0.36 0.12 0.19 0.16 0.14 0.08 0.05 0.09 0.03 0.03 0.03 0.04 0.11 0.07 0.27 0.34 0.08 0.06 0.15 0.02 0.04 0.05 0.13 0.06 0.06 0.04 0.03 0.09 0.59 0.47 0.38 0.18 0.06 0.22 0.16 0.02 0.02 0.04
0.00 0.00 0.00 0.06 0.03 0.01 0.05 0.04 0.11 0.15 0.39 0.41 0.33 0.21 0.07 0.02 0.06 0.02 0.07 0.01 0.01 0.04 0.00 0.03 0.02 0.09 0.09 0.07 0.01 0.03 0.01 0.02 0.01 0.01 0.02 0.02 0.06 0.07 0.04 0.19 0.00 0.29 0.05 0.21 0.04 0.34 0.06 0.21 0.03 0.12 0.16 0.32 0.14 0.27 0.17 0.17 0.13 0.08 0.05 0.05 0.09 0.12 0.09 0.02 0.03 0.10 0.19 0.18 0.21 0.18 0.12 0.08 0.24 0.21 0.31 0.06 0.02 0.03 0.06 0.16 0.17 0.02 0.01 0.02 0.02 0.08 0.03 0.27
0.00 0.00 0.00 0.01 0.01 0.00 0.03 0.00 0.01 0.05 0.13 0.19 0.28 0.33 0.26 0.18 0.03 0.14 0.12 0.01 0.05 0.01 0.03 0.00 0.03 0.10 0.08 0.02 0.05 0.01 0.01 0.00 0.01 0.02 0.00 0.01 0.01 0.07 0.00 0.02 0.01 0.09 0.10 0.03 0.14 0.23 0.22 0.16 0.16 0.45 0.07 0.12 0.23 0.18 0.15 0.14 0.15 0.13 0.09 0.07 0.05 0.06 0.04 0.05 0.03 0.06 0.13 0.10 0.28 0.35 0.20 0.15 0.12 0.09 0.05 0.10 0.01 0.04 0.14 0.01 0.02 0.01 0.01 0.01 0.02 0.03 0.05 0.04